Tracking 27405 objects as of 1-Jun-2023
HD Live streaming from Space Station
objects crossing your sky now

FENGYUN 1C DEB

Track FENGYUN 1C DEB now!
10-day predictions


NORAD ID: 45527
Int'l Code: 1999-025EYS
Perigee: 805.3 km
Apogee: 893.5 km
Inclination: 98.8 °
Period: 101.8 minutes
Semi major axis: 7220 km
RCS: Unknown
Launch date: May 10, 1999
Source: People's Republic of China (PRC)
Launch site: Taiyaun Space Center, China (TSC)

Note: This is SATELLITE DEBRIS
Your satellite tracking list
Your tracking list is empty




NASA's NSSDC Master Catalog

Two Line Element Set (TLE):
1 45527U 99025EYS 23151.62172588  .00002390  00000-0  12345-2 0  9990
2 45527  98.8016 216.1158 0061068  10.1105 350.1282 14.15018717264402
Source of the keplerian elements: AFSPC